National Weather Service Raw Text Product

Displaying AFOS PIL: RWRCLE Received: 2018-05-27 03:00 UTC


593 
ASUS41 KCLE 270300
RWRCLE
OHIO REGIONAL WEATHER ROUNDUP
NATIONAL WEATHER SERVICE WILMINGTON, OH
1100 PM EDT SAT MAY 26 2018

NOTE: "FAIR" INDICATES FEW OR NO CLOUDS BELOW 12,000 FEET WITH NO
SIGNIFICANT WEATHER AND/OR OBSTRUCTIONS TO VISIBILITY.

OHZ001>008-015>018-024>027-034-035-043-044-270400-
   NORTHWEST OHIO
  
CITY           SKY/WX    TMP DP  RH WIND       PRES   REMARKS
DEFIANCE       FAIR      72  67  84 SE3       29.84R                  
FINDLAY        FAIR      73  69  87 SE6       29.85R                  
TOLEDO EXPRESS FAIR      71  70  96 S3        29.84R                  
TOLEDO EXEC    FAIR      71  67  87 SE7       29.85R                  
LIMA           FAIR      69  69 100 E5        29.86R                  
$$
 
OHZ009>014-019>023-028>033-038-089-270400-
   NORTHEAST OHIO
  
CITY           SKY/WX    TMP DP  RH WIND       PRES   REMARKS
CLE-HOPKINS    MOCLDY    70  66  87 S7        29.87R                  
CLE-LAKEFRONT  CLOUDY    71  65  81 S10       29.84R                  
CUY CO. ARPT   MOCLDY    73  68  83 S7        29.87R                  
LORAIN-ELYRIA  FAIR      67  61  81 VRB3      29.86R                  
ASHTABULA      CLOUDY    70  67  90 SE5       29.88R                  
AKRON-CANTON   LGT RAIN  69  66  90 S9        29.88R FOG              
WOOSTER        NOT AVBL                                               
MANSFIELD      CLOUDY    67  66  97 S6        29.88R                  
YOUNGSTOWN     LGT RAIN  68  66  93 S9        29.89R                  
$$
 
OHZ042-051>053-060>062-070>072-077>081-270400-
  SOUTHWEST OHIO
  
CITY           SKY/WX    TMP DP  RH WIND       PRES   REMARKS
CINC-COVINGTON MOCLDY    70  65  84 S9        29.86R                  
CINC-LUNKEN    FAIR      70  68  93 SW3       29.86R                  
HAMILTON       CLOUDY    74  69  85 NE8       29.87R                  
DAYTON         NOT AVBL                                               
WRIGHT-PAT AFB MOCLDY    70  68  93 CALM      29.86R                  
DAYTON GENERAL FAIR      74  68  81 SW7       29.86R                  
WILMINGTON     FAIR      69  68  96 S5        29.87R                  
$$

OHZ036-037-039>041-045>050-054>059-063>069-073>076-082>088-270400-
  CENTRAL AND SOUTHEAST OHIO
  
CITY           SKY/WX    TMP DP  RH WIND       PRES   REMARKS
COLUMBUS       MOCLDY    70  70 100 CALM      29.86S                  
OSU AIRPORT    FAIR      69  68  96 E5        29.87R                  
BOLTON FIELD   NOT AVBL                                               
RICKENBACK AFB NOT AVBL                                               
NEWARK         TSTM      69  68  96 CALM      29.88R FOG              
MARION         CLOUDY    70  67  90 SE6       29.87R                  
LANCASTER      HVY RAIN  70  69  97 CALM      29.88R FOG              
ZANESVILLE     MOCLDY    69  66  90 N3        29.89R                  
NEW PHILLY     CLOUDY    67  66  97 S6        29.89S                  
$$